FW8739 Weather Reports


Display with metric or nautical units.
time (UTC)temp
F
wind
direction
speed
MPH
gust
MPH
rain 1hr
in
rain 24hr
in
rain mn
in
humidity
%
barometer
mb
20260510174505 74 184 1.0 2.0 0.00 0.00 0.00 52 1020.0
20260510174001 73 245 3.0 5.0 0.00 0.00 0.00 47 1020.1
20260510173457 73 76 1.0 2.0 0.00 0.00 0.00 45 1020.0
20260510172954 74 234 1.0 3.0 0.00 0.00 0.00 45 1020.1
20260510172449 74 134 0.0 0.0 0.00 0.00 0.00 49 1019.9
20260510171946 74 123 0.0 0.0 0.00 0.00 0.00 48 1020.0
20260510171443 74 192 0.0 0.0 0.00 0.00 0.00 54 1019.9
20260510170939 73 173 0.0 0.0 0.00 0.00 0.00 54 1020.0
20260510170436 73 194 1.0 1.0 0.00 0.00 0.00 55 1020.0
20260510165932 72 133 0.0 0.0 0.00 0.00 0.00 55 1019.8
20260510165428 72 283 2.0 3.0 0.00 0.00 0.00 54 1020.1
20260510164925 71 157 0.0 0.0 0.00 0.00 0.00 56 1019.8
20260510164422 72 155 0.0 0.0 0.00 0.00 0.00 52 1020.0
20260510163917 72 183 0.0 0.0 0.00 0.00 0.00 57 1019.8
20260510163413 71 180 1.0 2.0 0.00 0.00 0.00 49 1019.8
20260510162908 72 221 3.0 5.0 0.00 0.00 0.00 50 1019.6
20260510162406 72 169 0.0 0.0 0.00 0.00 0.00 53 1019.9
20260510161901 72 170 0.0 0.0 0.00 0.00 0.00 55 1019.7
20260510161357 71 156 1.0 1.0 0.00 0.00 0.00 55 1019.9
20260510160854 71 110 1.0 3.0 0.00 0.00 0.00 54 1020.1
20260510160351 70 177 0.0 0.0 0.00 0.00 0.00 55 1019.7
20260510155849 69 161 2.0 2.0 0.00 0.00 0.00 53 1020.0
20260510155347 69 180 0.0 0.0 0.00 0.00 0.00 55 1020.0
20260510154843 70 14 3.0 3.0 0.00 0.00 0.00 54 1020.0
20260510154339 69 130 1.0 1.0 0.00 0.00 0.00 59 1020.0
20260510153833 70 139 2.0 2.0 0.00 0.00 0.00 62 1020.1
20260510153330 71 145 1.0 1.0 0.00 0.00 0.00 62 1019.7
20260510152827 70 170 0.0 0.0 0.00 0.00 0.00 62 1019.7
20260510152324 70 190 0.0 0.0 0.00 0.00 0.00 66 1019.8
20260510151820 69 108 1.0 2.0 0.00 0.00 0.00 62 1019.7
20260510151318 69 142 1.0 1.0 0.00 0.00 0.00 63 1019.4
20260510150814 68 186 2.0 2.0 0.00 0.00 0.00 71 1019.6
20260510150309 68 189 1.0 1.0 0.00 0.00 0.00 67 1019.5
20260510145806 69 295 2.0 2.0 0.00 0.00 0.00 67 1019.6
20260510145305 68 161 0.0 0.0 0.00 0.00 0.00 68 1019.5
20260510144759 68 291 3.0 3.0 0.00 0.00 0.00 67 1019.5
20260510144256 67 189 0.0 0.0 0.00 0.00 0.00 74 1019.5
20260510143756 67 130 1.0 1.0 0.00 0.00 0.00 70 1019.6
20260510143252 67 177 0.0 0.0 0.00 0.00 0.00 70 1019.3
20260510142749 68 185 1.0 2.0 0.00 0.00 0.00 73 1019.3
20260510142245 67 289 1.0 2.0 0.00 0.00 0.00 76 1019.4
20260510141742 66 161 2.0 2.0 0.00 0.00 0.00 71 1019.1
20260510141240 67 149 0.0 0.0 0.00 0.00 0.00 73 1019.1
20260510140737 66 178 0.0 0.0 0.00 0.00 0.00 77 1019.0
20260510140232 66 164 3.0 3.0 0.00 0.00 0.00 71 1019.3
20260510135726 65 181 1.0 1.0 0.00 0.00 0.00 78 1018.9
20260510135222 64 198 0.0 0.0 0.00 0.00 0.00 80 1018.8
20260510134720 63 192 1.0 2.0 0.00 0.00 0.00 81 1018.5
20260510134217 62 142 0.0 0.0 0.00 0.00 0.00 82 1018.6
20260510133712 61 115 3.0 3.0 0.00 0.00 0.00 84 1018.4
20260510133208 60 166 0.0 0.0 0.00 0.00 0.00 91 1018.4
20260510132659 59 162 0.0 0.0 0.00 0.00 0.00 99 1018.3
20260510132156 59 199 0.0 0.0 0.00 0.00 0.00 99 1018.4
20260510131654 58 173 0.0 0.0 0.00 0.00 0.00 99 1018.2
20260510131151 57 188 0.0 0.0 0.00 0.00 0.00 99 1018.3
20260510130647 57 180 0.0 0.0 0.00 0.00 0.00 99 1018.4
20260510130145 56 163 0.0 0.0 0.00 0.00 0.00 99 1018.0
20260510125641 56 176 0.0 0.0 0.00 0.00 0.00 99 1018.0
20260510125137 55 178 0.0 0.0 0.00 0.00 0.00 99 1018.2
20260510124634 55 178 0.0 0.0 0.00 0.00 0.00 99 1018.0
20260510124131 55 185 0.0 0.0 0.00 0.00 0.00 99 1018.0
20260510123627 55 187 0.0 0.0 0.00 0.00 0.00 99 1017.8
20260510123123 54 181 0.0 0.0 0.00 0.00 0.00 99 1017.8
20260510122619 54 180 0.0 0.0 0.00 0.00 0.00 99 1018.0
20260510122115 53 184 0.0 0.0 0.00 0.00 0.00 99 1017.7
20260510121612 53 180 0.0 0.0 0.00 0.00 0.00 99 1017.6
20260510121109 53 180 0.0 0.0 0.00 0.00 0.00 99 1017.4
20260510120607 53 185 0.0 0.0 0.00 0.00 0.00 99 1017.3
20260510115559 52 190 0.0 0.0 0.00 0.00 0.00 99 1017.2
20260510115056 52 185 0.0 0.0 0.00 0.00 0.00 99 1017.2
20260510114552 52 183 0.0 0.0 0.00 0.00 0.00 99 1016.8
20260510114048 52 180 0.0 0.0 0.00 0.00 0.00 99 1016.9
20260510113543 51 180 0.0 0.0 0.00 0.00 0.00 99 1016.9
20260510113041 51 182 0.0 0.0 0.00 0.00 0.00 99 1016.7
20260510112538 51 185 0.0 0.0 0.00 0.00 0.00 99 1016.7
20260510112034 51 186 0.0 0.0 0.00 0.00 0.00 99 1016.5
20260510111531 51 186 0.0 0.0 0.00 0.00 0.00 99 1016.7
20260510111027 51 184 0.0 0.0 0.00 0.00 0.00 99 1016.5
20260510110523 52 188 0.0 0.0 0.00 0.00 0.00 99 1016.4
20260510110020 52 182 0.0 0.0 0.00 0.00 0.00 99 1016.5
20260510105515 52 180 0.0 0.0 0.00 0.00 0.00 99 1016.5
20260510105010 52 187 0.0 0.0 0.00 0.00 0.00 99 1016.4
20260510104507 52 184 0.0 0.0 0.00 0.00 0.00 99 1016.5
20260510104003 52 188 0.0 0.0 0.00 0.00 0.00 99 1016.4
20260510103501 52 178 0.0 0.0 0.00 0.00 0.00 99 1016.1
20260510102956 52 179 0.0 0.0 0.00 0.00 0.00 99 1016.2
20260510102452 52 186 0.0 0.0 0.00 0.00 0.00 99 1016.1
20260510101949 51 185 0.0 0.0 0.00 0.00 0.00 99 1015.9
20260510101447 51 185 0.0 0.0 0.00 0.00 0.00 99 1015.8
20260510100945 51 185 0.0 0.0 0.00 0.00 0.00 99 1015.7
20260510100441 51 185 0.0 0.0 0.00 0.00 0.00 99 1015.7
20260510095937 51 186 0.0 0.0 0.00 0.00 0.00 99 1015.5
20260510095433 51 184 0.0 0.0 0.00 0.00 0.00 99 1015.8
20260510094932 51 182 0.0 0.0 0.00 0.00 0.00 99 1015.6
20260510094427 50 187 0.0 0.0 0.00 0.00 0.00 99 1015.6
20260510093923 50 188 0.0 0.0 0.00 0.00 0.00 99 1015.6
20260510093419 51 184 0.0 0.0 0.00 0.00 0.00 99 1015.2
20260510092915 51 184 0.0 0.0 0.00 0.00 0.00 99 1015.1
20260510092413 51 187 0.0 0.0 0.00 0.00 0.00 99 1015.2
20260510091912 51 187 0.0 0.0 0.00 0.00 0.00 99 1015.1
20260510091410 51 184 0.0 0.0 0.00 0.00 0.00 99 1015.5
20260510090907 51 182 0.0 0.0 0.00 0.00 0.00 99 1015.4
20260510090403 51 183 0.0 0.0 0.00 0.00 0.00 99 1015.3
20260510085859 51 184 0.0 0.0 0.00 0.00 0.00 99 1015.1
20260510085354 51 185 0.0 0.0 0.00 0.00 0.00 99 1015.3
20260510084850 51 185 0.0 0.0 0.00 0.00 0.00 99 1015.2
20260510084347 51 185 0.0 0.0 0.00 0.00 0.00 99 1015.1
20260510083844 51 184 0.0 0.0 0.00 0.00 0.00 99 1015.1
20260510083340 51 184 0.0 0.0 0.00 0.00 0.00 99 1015.2
20260510082836 51 182 0.0 0.0 0.00 0.00 0.00 99 1014.9
20260510082334 51 185 0.0 0.0 0.00 0.00 0.00 99 1014.9
20260510081832 52 185 0.0 0.0 0.00 0.00 0.00 99 1015.1
20260510081329 51 192 0.0 0.0 0.00 0.00 0.00 99 1015.0
20260510080824 52 185 0.0 0.0 0.00 0.00 0.00 99 1014.6
20260510080319 52 186 0.0 0.0 0.00 0.00 0.00 99 1014.9
20260510075817 51 188 0.0 0.0 0.00 0.00 0.00 99 1014.6
20260510075314 51 197 0.0 0.0 0.00 0.00 0.00 99 1014.6
20260510074811 51 185 0.0 0.0 0.00 0.00 0.00 99 1014.4
20260510074308 51 185 0.0 0.0 0.00 0.00 0.00 99 1014.5
20260510073804 52 184 0.0 0.0 0.00 0.00 0.00 99 1014.5
20260510073300 51 190 0.0 0.0 0.00 0.00 0.00 99 1014.5
20260510072756 52 186 0.0 0.0 0.00 0.00 0.00 99 1014.8
20260510072252 52 184 0.0 0.0 0.00 0.00 0.00 99 1014.5
20260510071749 52 184 0.0 0.0 0.00 0.00 0.00 99 1014.7
20260510071246 52 184 0.0 0.0 0.00 0.00 0.00 99 1014.9
20260510070744 52 185 0.0 0.0 0.00 0.00 0.00 99 1015.1
20260510070241 52 187 0.0 0.0 0.00 0.00 0.00 99 1014.9
20260510065741 52 189 0.0 0.0 0.00 0.00 0.00 99 1015.0
20260510065238 53 184 0.0 0.0 0.00 0.00 0.00 99 1015.0
20260510064734 53 189 0.0 0.0 0.00 0.00 0.00 99 1015.0
20260510064232 53 197 0.0 0.0 0.00 0.00 0.00 99 1014.8
20260510063728 53 174 0.0 0.0 0.00 0.00 0.00 99 1015.1
20260510063225 53 184 0.0 0.0 0.00 0.00 0.00 99 1015.3
20260510062721 53 181 0.0 0.0 0.00 0.00 0.00 99 1015.0
20260510062217 54 180 0.0 0.0 0.00 0.00 0.00 99 1015.0
20260510061713 54 178 0.0 0.0 0.00 0.00 0.00 99 1014.9
20260510061210 54 189 0.0 0.0 0.00 0.00 0.00 99 1015.0
20260510060706 54 180 0.0 0.0 0.00 0.00 0.00 99 1014.8
20260510060203 53 187 0.0 0.0 0.00 0.00 0.00 99 1014.9
20260510055659 53 189 0.0 0.0 0.00 0.00 0.00 99 1014.6
20260510055157 53 186 0.0 0.0 0.00 0.00 0.00 99 1014.6
20260510054653 53 189 0.0 0.0 0.00 0.00 0.00 99 1014.5
20260510054149 53 169 0.0 0.0 0.00 0.00 0.00 99 1014.4
20260510053648 53 185 0.0 0.0 0.00 0.00 0.00 99 1014.4
20260510053145 53 184 0.0 0.0 0.00 0.00 0.00 99 1014.4
20260510052641 53 187 0.0 0.0 0.00 0.00 0.00 99 1014.1
20260510052137 53 184 0.0 0.0 0.00 0.00 0.00 99 1014.3
20260510051633 52 185 0.0 0.0 0.00 0.00 0.00 99 1014.4
20260510051130 52 182 0.0 0.0 0.00 0.00 0.00 99 1014.1
20260510050627 52 185 0.0 0.0 0.00 0.00 0.00 99 1014.0
20260510050124 52 180 0.0 0.0 0.00 0.00 0.00 99 1014.0
20260510045621 52 183 0.0 0.0 0.00 0.00 0.00 99 1013.9
20260510045117 52 185 0.0 0.0 0.00 0.00 0.00 99 1013.9
20260510044613 52 186 0.0 0.0 0.00 0.00 0.00 99 1013.8
20260510044111 52 184 0.0 0.0 0.00 0.00 0.00 99 1013.8
20260510043606 52 184 0.0 0.0 0.00 0.00 0.00 99 1014.0
20260510043103 52 184 0.0 0.0 0.00 0.00 0.00 99 1013.8
20260510042601 52 189 0.0 0.0 0.00 0.00 0.00 99 1014.0
20260510042057 52 184 0.0 0.0 0.00 0.00 0.00 99 1013.7
20260510041554 53 184 0.0 0.0 0.00 0.00 0.00 99 1013.6
20260510041051 53 184 0.0 0.0 0.00 0.00 0.00 99 1013.9
20260510040548 53 184 0.0 0.0 0.00 0.00 0.00 99 1013.8
20260510040044 53 184 0.0 0.0 0.00 0.00 0.00 99 1013.7
20260510035540 53 188 0.0 0.0 0.00 0.00 0.00 99 1013.8
20260510035040 53 184 0.0 0.0 0.00 0.00 0.00 99 1013.5
20260510034539 54 189 0.0 0.0 0.00 0.00 0.00 99 1013.8
20260510034035 54 189 0.0 0.0 0.00 0.00 0.00 99 1013.6
20260510033531 54 172 0.0 0.0 0.00 0.00 0.00 99 1013.8
20260510033029 54 184 0.0 0.0 0.00 0.00 0.00 99 1013.5
20260510032524 54 184 0.0 0.0 0.00 0.00 0.00 99 1013.5
20260510032020 54 184 0.0 0.0 0.00 0.00 0.00 99 1013.3
20260510031510 54 185 0.0 0.0 0.00 0.00 0.00 99 1013.3
20260510031006 54 185 0.0 0.0 0.00 0.00 0.00 99 1013.2
20260510030502 55 184 0.0 0.0 0.00 0.00 0.00 99 1013.0
20260510025959 55 184 0.0 0.0 0.00 0.00 0.00 99 1013.2
20260510025456 55 183 0.0 0.0 0.00 0.00 0.00 99 1013.0
20260510024954 55 188 0.0 0.0 0.00 0.00 0.00 99 1013.4
20260510024450 55 185 0.0 0.0 0.00 0.00 0.00 99 1013.2
20260510023946 56 183 0.0 0.0 0.00 0.00 0.00 98 1012.7
20260510023442 56 182 0.0 0.0 0.00 0.00 0.00 98 1012.7
20260510022939 56 186 0.0 0.0 0.00 0.00 0.00 98 1012.6
20260510022439 56 182 0.0 0.0 0.00 0.00 0.00 97 1012.6
20260510021938 56 183 0.0 0.0 0.00 0.00 0.00 97 1012.4
20260510021436 57 185 0.0 0.0 0.00 0.00 0.00 97 1012.4
20260510020933 57 183 0.0 0.0 0.00 0.00 0.00 96 1012.6
20260510020427 57 183 0.0 0.0 0.00 0.00 0.00 96 1012.3
20260510015923 57 183 0.0 0.0 0.00 0.00 0.00 96 1012.4
20260510015419 58 183 0.0 0.0 0.00 0.00 0.00 95 1011.9
20260510014914 58 183 0.0 0.0 0.00 0.00 0.00 94 1012.2
20260510014412 59 183 0.0 0.0 0.00 0.00 0.00 93 1012.0
20260510013908 59 186 0.0 0.0 0.00 0.00 0.00 93 1012.0
20260510013403 59 183 0.0 0.0 0.00 0.00 0.00 94 1012.0
20260510012858 60 187 0.0 0.0 0.00 0.00 0.00 93 1011.8
20260510012354 60 183 0.0 0.0 0.00 0.00 0.00 92 1011.8
20260510011848 60 183 0.0 0.0 0.00 0.00 0.00 92 1011.8
20260510011344 61 183 0.0 0.0 0.00 0.00 0.00 91 1011.7
20260510010840 61 184 0.0 0.0 0.00 0.00 0.00 90 1011.6
20260510010338 62 183 0.0 0.0 0.00 0.00 0.00 89 1011.5
20260510005834 63 183 0.0 0.0 0.00 0.00 0.00 87 1011.4
20260510005331 64 184 0.0 0.0 0.00 0.00 0.00 85 1011.5
20260510004829 64 184 0.0 0.0 0.00 0.00 0.00 84 1011.4
20260510004326 65 184 0.0 0.0 0.00 0.00 0.00 82 1011.2
20260510003823 66 184 0.0 0.0 0.00 0.00 0.00 80 1011.2
20260510003320 66 184 0.0 0.0 0.00 0.00 0.00 79 1011.1
20260510002819 67 187 0.0 0.0 0.00 0.00 0.00 77 1011.2
20260510002316 68 187 0.0 0.0 0.00 0.00 0.00 74 1011.0
20260510001813 69 188 0.0 0.0 0.00 0.00 0.00 72 1011.1
20260510001311 70 188 0.0 0.0 0.00 0.00 0.00 68 1010.9
20260510000806 71 188 0.0 0.0 0.00 0.00 0.00 67 1010.9
20260510000305 71 188 0.0 0.0 0.00 0.00 0.00 65 1010.9
20260509235802 72 188 0.0 0.0 0.00 0.00 0.00 65 1010.8
20260509235258 74 188 0.0 0.0 0.00 0.00 0.00 63 1010.8
20260509234754 75 189 0.0 0.0 0.00 0.00 0.00 61 1011.0
20260509234250 77 189 0.0 0.0 0.00 0.00 0.00 56 1010.9
20260509233749 81 194 0.0 0.0 0.00 0.00 0.00 53 1010.7
20260509233246 80 196 0.0 0.0 0.00 0.00 0.00 53 1011.0
20260509232742 78 188 0.0 0.0 0.00 0.00 0.00 56 1010.9
20260509232239 78 194 0.0 0.0 0.00 0.00 0.00 56 1011.0
20260509231735 78 189 0.0 0.0 0.00 0.00 0.00 58 1010.9
20260509231233 79 189 0.0 0.0 0.00 0.00 0.00 54 1010.9
20260509230730 80 198 1.0 1.0 0.00 0.00 0.00 54 1010.9
20260509230227 81 184 0.0 0.0 0.00 0.00 0.00 44 1010.9
20260509225722 80 181 0.0 0.0 0.00 0.00 0.00 47 1010.8
20260509225218 80 181 1.0 2.0 0.00 0.00 0.00 39 1011.0
20260509224714 81 181 0.0 0.0 0.00 0.00 0.00 36 1010.9
20260509224211 80 181 0.0 0.0 0.00 0.00 0.00 40 1010.8
20260509223708 81 187 1.0 1.0 0.00 0.00 0.00 44 1010.6
20260509223205 81 187 0.0 0.0 0.00 0.00 0.00 38 1010.7
20260509222702 82 202 1.0 1.0 0.00 0.00 0.00 36 1010.8
20260509222158 81 260 2.0 2.0 0.00 0.00 0.00 36 1010.8
20260509221653 81 185 0.0 0.0 0.00 0.00 0.00 45 1010.7
20260509221149 81 285 1.0 2.0 0.00 0.00 0.00 45 1010.7
20260509220646 81 221 0.0 0.0 0.00 0.00 0.00 42 1010.6
20260509220142 81 195 0.0 1.0 0.00 0.00 0.00 40 1010.5
20260509215638 81 194 0.0 0.0 0.00 0.00 0.00 43 1010.7
20260509215135 81 200 1.0 1.0 0.00 0.00 0.00 38 1010.6
20260509214632 81 95 0.0 0.0 0.00 0.00 0.00 38 1010.4
20260509214128 82 213 2.0 2.0 0.00 0.00 0.00 36 1010.5
20260509213625 82 195 0.0 0.0 0.00 0.00 0.00 39 1010.5
20260509213121 82 200 1.0 1.0 0.00 0.00 0.00 41 1010.7
20260509212619 82 223 0.0 0.0 0.00 0.00 0.00 43 1010.8
20260509212116 83 146 1.0 1.0 0.00 0.00 0.00 37 1010.7
20260509211612 83 177 0.0 0.0 0.00 0.00 0.00 36 1010.8
20260509211108 84 190 1.0 1.0 0.00 0.00 0.00 40 1010.9
20260509210605 85 109 1.0 1.0 0.00 0.00 0.00 34 1011.0
20260509205556 86 187 0.0 0.0 0.00 0.00 0.00 37 1010.9
20260509205051 85 192 0.0 0.0 0.00 0.00 0.00 38 1011.0
20260509204548 84 177 0.0 0.0 0.00 0.00 0.00 34 1011.1
20260509204045 86 27 1.0 2.0 0.00 0.00 0.00 35 1011.0
20260509203540 86 224 2.0 3.0 0.00 0.00 0.00 37 1011.1
20260509203039 85 332 2.0 2.0 0.00 0.00 0.00 34 1011.2
20260509202533 85 307 1.0 1.0 0.00 0.00 0.00 37 1011.2
20260509202029 85 248 2.0 2.0 0.00 0.00 0.00 39 1011.1
20260509201524 86 197 0.0 1.0 0.00 0.00 0.00 34 1011.2
20260509201022 86 190 0.0 1.0 0.00 0.00 0.00 39 1011.3
20260509200521 85 281 1.0 1.0 0.00 0.00 0.00 39 1011.6
20260509200018 85 196 0.0 1.0 0.00 0.00 0.00 37 1011.5
20260509195513 85 200 2.0 2.0 0.00 0.00 0.00 42 1011.5
20260509195008 84 187 1.0 2.0 0.00 0.00 0.00 41 1011.6
20260509194503 85 8 2.0 2.0 0.00 0.00 0.00 45 1011.4
20260509194001 85 126 0.0 1.0 0.00 0.00 0.00 40 1011.4
20260509193501 87 212 0.0 0.0 0.00 0.00 0.00 38 1011.5
20260509192957 86 181 1.0 1.0 0.00 0.00 0.00 40 1011.4
20260509192454 86 214 1.0 1.0 0.00 0.00 0.00 41 1011.5
20260509191949 86 191 1.0 1.0 0.00 0.00 0.00 42 1011.4
20260509191444 85 194 1.0 1.0 0.00 0.00 0.00 42 1011.6
20260509190940 84 192 0.0 0.0 0.00 0.00 0.00 43 1011.6
20260509190437 84 156 0.0 0.0 0.00 0.00 0.00 42 1011.6
20260509185935 85 257 4.0 6.0 0.00 0.00 0.00 42 1011.6
20260509185432 85 325 2.0 3.0 0.00 0.00 0.00 41 1011.6
20260509184929 83 193 1.0 1.0 0.00 0.00 0.00 49 1011.6
20260509184427 85 13 2.0 2.0 0.00 0.00 0.00 48 1011.7
20260509183923 84 165 1.0 2.0 0.00 0.00 0.00 45 1011.7
20260509183417 82 224 3.0 3.0 0.00 0.00 0.00 46 1011.7
20260509182914 82 187 1.0 2.0 0.00 0.00 0.00 50 1011.8
20260509182411 83 141 1.0 2.0 0.00 0.00 0.00 45 1011.5
20260509181908 82 164 1.0 1.0 0.00 0.00 0.00 45 1011.8
20260509181406 82 99 1.0 2.0 0.00 0.00 0.00 44 1011.8
20260509180903 81 74 2.0 3.0 0.00 0.00 0.00 48 1011.8
20260509180358 82 192 1.0 1.0 0.00 0.00 0.00 58 1012.0
20260509175855 81 187 2.0 2.0 0.00 0.00 0.00 53 1012.0
20260509175351 80 112 0.0 1.0 0.00 0.00 0.00 56 1011.9